RUM5520 SBCT-SBKP

Flight info

Callsign RUM5520
Flight time 0h 39m
Altitude 29000
Route GRADE1A AKPEN UZ132 EDRAT VERME1A
Aircraft A320/M-SDE3FGHIRWY/LB1

Departure

Time 2026-04-28 15:38
Airport Curitiba-Afonso Pena International Airport (SBCT)

Arrival

Time 2026-04-28 16:17
Airport Viracopos International Airport (SBKP)
Time Latitude Longitude Altitude Speed Heading
2026-04-28 15:11 -25.53564 -49.17229 2993 ft 0 kts 209°
2026-04-28 15:27 -25.53548 -49.17218 2993 ft 4 kts 218°
2026-04-28 15:27 -25.53529 -49.17198 2993 ft 4 kts 240°
2026-04-28 15:27 -25.53522 -49.17172 2991 ft 4 kts 288°
2026-04-28 15:28 -25.53535 -49.17152 2991 ft 4 kts 314°
2026-04-28 15:28 -25.53548 -49.17137 2991 ft 0 kts 314°
2026-04-28 15:30 -25.53529 -49.17153 2991 ft 13 kts 332°
2026-04-28 15:30 -25.53466 -49.17134 2991 ft 8 kts
2026-04-28 15:31 -25.53400 -49.17183 2991 ft 14 kts 314°
2026-04-28 15:31 -25.53318 -49.17275 2993 ft 20 kts 319°
2026-04-28 15:31 -25.53210 -49.17398 2993 ft 25 kts 313°
2026-04-28 15:31 -25.53098 -49.17523 2992 ft 18 kts 311°
2026-04-28 15:32 -25.53003 -49.17629 2989 ft 20 kts 311°
2026-04-28 15:32 -25.52978 -49.17756 2986 ft 17 kts 269°
2026-04-28 15:32 -25.52960 -49.17883 2985 ft 17 kts 304°
2026-04-28 15:32 -25.52877 -49.17971 2984 ft 17 kts 319°
2026-04-28 15:33 -25.52772 -49.17995 2985 ft 15 kts 358°
2026-04-28 15:33 -25.52680 -49.17997 2988 ft 11 kts
2026-04-28 15:33 -25.52650 -49.17998 2989 ft 0 kts 355°
2026-04-28 15:35 -25.52625 -49.17999 2990 ft 11 kts 359°
2026-04-28 15:36 -25.52562 -49.18000 2992 ft 7 kts
2026-04-28 15:36 -25.52522 -49.17988 2992 ft 5 kts 28°
2026-04-28 15:36 -25.52512 -49.17974 2992 ft 1 kts 65°
2026-04-28 15:36 -25.52518 -49.17947 2992 ft 3 kts 114°
2026-04-28 15:37 -25.52522 -49.17942 2992 ft 0 kts 126°
2026-04-28 15:37 -25.52679 -49.17764 2988 ft 73 kts 134°
2026-04-28 15:37 -25.53196 -49.17185 2995 ft 135 kts 135°
2026-04-28 15:37 -25.53671 -49.16659 3242 ft 144 kts 135°
2026-04-28 15:38 -25.54621 -49.15594 3934 ft 161 kts 134°
2026-04-28 15:38 -25.55393 -49.14589 4240 ft 183 kts 114°
2026-04-28 15:38 -25.55432 -49.13117 4476 ft 208 kts 71°
2026-04-28 15:38 -25.54735 -49.11596 4843 ft 235 kts 58°
2026-04-28 15:39 -25.53784 -49.10006 5347 ft 259 kts 56°
2026-04-28 15:39 -25.52739 -49.08316 6154 ft 270 kts 56°
2026-04-28 15:39 -25.51690 -49.06574 7108 ft 274 kts 56°
2026-04-28 15:39 -25.50652 -49.04782 8020 ft 279 kts 57°
2026-04-28 15:40 -25.49620 -49.02937 8890 ft 285 kts 57°
2026-04-28 15:40 -25.48587 -49.01040 9720 ft 290 kts 57°
2026-04-28 15:40 -25.47547 -48.99105 10535 ft 296 kts 57°
2026-04-28 15:40 -25.46434 -48.97168 11297 ft 301 kts 49°
2026-04-28 15:41 -25.44935 -48.95545 12033 ft 303 kts 33°
2026-04-28 15:41 -25.43049 -48.94388 12431 ft 320 kts 17°
2026-04-28 15:41 -25.40836 -48.93732 12731 ft 336 kts 10°
2026-04-28 15:41 -25.38532 -48.93127 13327 ft 344 kts 10°
2026-04-28 15:42 -25.36214 -48.92513 14028 ft 349 kts 11°
2026-04-28 15:42 -25.33839 -48.91872 14757 ft 353 kts 11°
2026-04-28 15:42 -25.31440 -48.91220 15446 ft 357 kts 11°
2026-04-28 15:42 -25.29010 -48.90559 16130 ft 361 kts 11°
2026-04-28 15:43 -25.26561 -48.89894 16802 ft 365 kts 11°
2026-04-28 15:43 -25.24080 -48.89221 17452 ft 369 kts 11°
2026-04-28 15:43 -25.21575 -48.88542 18094 ft 373 kts 11°
2026-04-28 15:43 -25.19041 -48.87854 18716 ft 376 kts 11°
2026-04-28 15:44 -25.16487 -48.87162 19310 ft 380 kts 11°
2026-04-28 15:44 -25.13914 -48.86470 19900 ft 382 kts
2026-04-28 15:44 -25.11277 -48.86016 20465 ft 384 kts
2026-04-28 15:44 -25.08617 -48.85609 21027 ft 388 kts
2026-04-28 15:45 -25.05935 -48.85203 21566 ft 391 kts
2026-04-28 15:45 -25.03262 -48.84799 22057 ft 394 kts
2026-04-28 15:45 -25.00528 -48.84386 22557 ft 397 kts
2026-04-28 15:45 -24.97785 -48.83968 23057 ft 400 kts
2026-04-28 15:46 -24.95014 -48.83546 23526 ft 403 kts
2026-04-28 15:46 -24.92225 -48.83121 23989 ft 406 kts
2026-04-28 15:46 -24.89413 -48.82691 24443 ft 409 kts
2026-04-28 15:46 -24.86586 -48.82259 24891 ft 411 kts
2026-04-28 15:47 -24.83739 -48.81827 25336 ft 414 kts
2026-04-28 15:47 -24.80882 -48.81396 25769 ft 416 kts
2026-04-28 15:47 -24.78006 -48.80965 26197 ft 418 kts
2026-04-28 15:47 -24.75113 -48.80529 26607 ft 421 kts
2026-04-28 15:48 -24.72194 -48.80088 27004 ft 423 kts
2026-04-28 15:48 -24.69272 -48.79644 27409 ft 425 kts
2026-04-28 15:48 -24.66328 -48.79197 27797 ft 428 kts
2026-04-28 15:48 -24.63407 -48.78753 28173 ft 430 kts
2026-04-28 15:49 -24.60396 -48.78295 28544 ft 432 kts
2026-04-28 15:49 -24.57444 -48.77847 28899 ft 435 kts
2026-04-28 15:49 -24.54443 -48.77384 29141 ft 437 kts
2026-04-28 15:49 -24.51522 -48.76556 29183 ft 427 kts 17°
2026-04-28 15:50 -24.48874 -48.75173 29182 ft 420 kts 28°
2026-04-28 15:50 -24.46402 -48.73485 29181 ft 417 kts 28°
2026-04-28 15:50 -24.41503 -48.70112 29178 ft 415 kts 28°
2026-04-28 15:51 -24.36617 -48.66741 29174 ft 415 kts 28°
2026-04-28 15:51 -24.31729 -48.63375 29173 ft 414 kts 28°
2026-04-28 15:52 -24.26841 -48.60023 29170 ft 414 kts 28°
2026-04-28 15:52 -24.21980 -48.56696 29167 ft 414 kts 28°
2026-04-28 15:53 -24.17103 -48.53350 29161 ft 414 kts 28°
2026-04-28 15:53 -24.12224 -48.50008 29157 ft 413 kts 28°
2026-04-28 15:54 -24.07349 -48.46661 29148 ft 413 kts 28°
2026-04-28 15:54 -24.02480 -48.43328 29143 ft 413 kts 28°
2026-04-28 15:55 -23.98434 -48.40565 29137 ft 413 kts 28°
2026-04-28 15:55 -23.93564 -48.37240 29132 ft 412 kts 28°
2026-04-28 15:56 -23.88690 -48.33917 29125 ft 412 kts 28°
2026-04-28 15:56 -23.86272 -48.32266 28783 ft 406 kts 28°
2026-04-28 15:56 -23.83898 -48.30642 27971 ft 400 kts 29°
2026-04-28 15:57 -23.81576 -48.28988 27146 ft 396 kts 31°
2026-04-28 15:57 -23.79319 -48.27297 26317 ft 391 kts 32°
2026-04-28 15:57 -23.77097 -48.25584 25692 ft 390 kts 32°
2026-04-28 15:57 -23.74894 -48.23876 25214 ft 387 kts 32°
2026-04-28 15:58 -23.72706 -48.22187 24731 ft 384 kts 32°
2026-04-28 15:58 -23.70524 -48.20518 24246 ft 381 kts 32°
2026-04-28 15:58 -23.68356 -48.18870 23766 ft 378 kts 32°
2026-04-28 15:58 -23.66201 -48.17240 23291 ft 376 kts 32°
2026-04-28 15:59 -23.64056 -48.15625 22832 ft 373 kts 32°
2026-04-28 15:59 -23.61955 -48.14047 22399 ft 371 kts 32°
2026-04-28 15:59 -23.59838 -48.12456 21956 ft 368 kts 32°
2026-04-28 15:59 -23.57738 -48.10879 21524 ft 365 kts 32°
2026-04-28 16:00 -23.55656 -48.09310 21102 ft 362 kts 32°
2026-04-28 16:00 -23.53591 -48.07753 20669 ft 360 kts 32°
2026-04-28 16:00 -23.51539 -48.06209 20235 ft 357 kts 32°
2026-04-28 16:00 -23.49497 -48.04673 19805 ft 355 kts 32°
2026-04-28 16:01 -23.47476 -48.03150 19375 ft 353 kts 32°
2026-04-28 16:01 -23.45463 -48.01632 18955 ft 350 kts 32°
2026-04-28 16:01 -23.43465 -48.00127 18552 ft 348 kts 32°
2026-04-28 16:01 -23.41479 -47.98635 18148 ft 346 kts 32°
2026-04-28 16:02 -23.39505 -47.97154 17750 ft 343 kts 32°
2026-04-28 16:02 -23.37549 -47.95685 17357 ft 341 kts 32°
2026-04-28 16:02 -23.35636 -47.94248 16960 ft 339 kts 32°
2026-04-28 16:02 -23.33706 -47.92801 16581 ft 337 kts 32°
2026-04-28 16:03 -23.31780 -47.91356 16211 ft 335 kts 32°
2026-04-28 16:03 -23.29863 -47.89920 15848 ft 333 kts 32°
2026-04-28 16:03 -23.27959 -47.88494 15488 ft 331 kts 32°
2026-04-28 16:03 -23.26065 -47.87075 15121 ft 329 kts 32°
2026-04-28 16:04 -23.24187 -47.85666 14770 ft 327 kts 32°
2026-04-28 16:04 -23.22329 -47.84248 14397 ft 325 kts 36°
2026-04-28 16:04 -23.20728 -47.82513 14019 ft 325 kts 50°
2026-04-28 16:04 -23.19539 -47.80433 13511 ft 324 kts 60°
2026-04-28 16:05 -23.18490 -47.78271 12997 ft 322 kts 60°
2026-04-28 16:05 -23.17448 -47.76127 12498 ft 319 kts 60°
2026-04-28 16:05 -23.16412 -47.74006 11987 ft 316 kts 60°
2026-04-28 16:05 -23.15397 -47.71926 11495 ft 314 kts 60°
2026-04-28 16:06 -23.14377 -47.69839 10978 ft 311 kts 60°
2026-04-28 16:06 -23.13365 -47.67778 10464 ft 308 kts 60°
2026-04-28 16:06 -23.12362 -47.65734 9980 ft 304 kts 60°
2026-04-28 16:06 -23.11383 -47.63733 9604 ft 297 kts 60°
2026-04-28 16:07 -23.10414 -47.61759 9183 ft 295 kts 60°
2026-04-28 16:07 -23.09452 -47.59799 8818 ft 292 kts 60°
2026-04-28 16:07 -23.07552 -47.55922 8063 ft 288 kts 61°
2026-04-28 16:08 -23.06611 -47.54008 7682 ft 287 kts 60°
2026-04-28 16:08 -23.05671 -47.52108 7313 ft 285 kts 61°
2026-04-28 16:08 -23.04743 -47.50221 6932 ft 283 kts 61°
2026-04-28 16:09 -23.02902 -47.46488 6519 ft 280 kts 61°
2026-04-28 16:09 -23.01981 -47.44620 6528 ft 281 kts 61°
2026-04-28 16:09 -23.01062 -47.42754 6521 ft 280 kts 61°
2026-04-28 16:10 -22.99233 -47.39040 6517 ft 280 kts 59°
2026-04-28 16:10 -22.97987 -47.37430 6510 ft 279 kts 38°
2026-04-28 16:10 -22.94392 -47.36115 6508 ft 278 kts 356°
2026-04-28 16:11 -22.90624 -47.36554 6507 ft 259 kts
2026-04-28 16:11 -22.87979 -47.34556 6502 ft 231 kts 64°
2026-04-28 16:12 -22.88060 -47.31147 5914 ft 245 kts 122°
2026-04-28 16:12 -22.89083 -47.29662 5554 ft 246 kts 129°
2026-04-28 16:13 -22.91174 -47.26795 4906 ft 233 kts 129°
2026-04-28 16:13 -22.92145 -47.25440 4604 ft 222 kts 128°
2026-04-28 16:13 -22.93909 -47.22983 4057 ft 190 kts 127°
2026-04-28 16:14 -22.95423 -47.20872 3564 ft 166 kts 128°
2026-04-28 16:14 -22.96741 -47.19034 3164 ft 148 kts 128°
2026-04-28 16:15 -22.97980 -47.17305 2776 ft 145 kts 128°
2026-04-28 16:15 -22.98598 -47.16444 2591 ft 145 kts 128°
2026-04-28 16:15 -22.99213 -47.15584 2401 ft 144 kts 127°
2026-04-28 16:16 -23.00406 -47.13920 2153 ft 114 kts 128°
2026-04-28 16:16 -23.00785 -47.13391 2155 ft 64 kts 127°
2026-04-28 16:17 -23.01082 -47.12982 2158 ft 28 kts 130°
2026-04-28 16:17 -23.01235 -47.12850 2153 ft 28 kts 152°
2026-04-28 16:17 -23.01351 -47.12805 2154 ft 2 kts 185°
2026-04-28 16:18 -23.01386 -47.12831 2157 ft 7 kts 246°
2026-04-28 16:19 -23.01377 -47.12875 2157 ft 5 kts 305°
2026-04-28 16:19 -23.01325 -47.12945 2155 ft 21 kts 306°
2026-04-28 16:19 -23.01235 -47.13078 2157 ft 22 kts 308°
2026-04-28 16:19 -23.01136 -47.13215 2157 ft 24 kts 308°
2026-04-28 16:20 -23.01029 -47.13366 2154 ft 26 kts 309°
2026-04-28 16:20 -23.00913 -47.13524 2151 ft 25 kts 306°
2026-04-28 16:20 -23.00813 -47.13663 2153 ft 22 kts 309°
2026-04-28 16:20 -23.00727 -47.13790 2149 ft 15 kts 291°
2026-04-28 16:21 -23.00709 -47.13906 2152 ft 16 kts 282°
2026-04-28 16:21 -23.00665 -47.14024 2152 ft 17 kts 298°
2026-04-28 16:21 -23.00594 -47.14130 2150 ft 18 kts 308°
2026-04-28 16:21 -23.00519 -47.14236 2153 ft 18 kts 308°
2026-04-28 16:22 -23.00441 -47.14344 2152 ft 18 kts 308°
2026-04-28 16:22 -23.00360 -47.14455 2153 ft 19 kts 312°
2026-04-28 16:22 -23.00283 -47.14565 2156 ft 17 kts 307°
2026-04-28 16:22 -23.00265 -47.14622 2152 ft 6 kts 256°
2026-04-28 16:23 -23.00270 -47.14633 2155 ft 1 kts 228°
2026-04-28 16:23 -23.00295 -47.14655 2152 ft 8 kts 217°
2026-04-28 16:23 -23.00337 -47.14688 2156 ft 9 kts 217°
2026-04-28 16:23 -23.00400 -47.14757 2153 ft 12 kts 258°
2026-04-28 16:24 -23.00372 -47.14822 2153 ft 7 kts 300°
2026-04-28 16:24 -23.00370 -47.14831 2157 ft 1 kts 276°
2026-04-28 16:24 -23.00375 -47.14841 2153 ft 2 kts 227°
2026-04-28 16:24 -23.00391 -47.14849 2157 ft 5 kts 211°
2026-04-28 16:25 -23.00403 -47.14858 2151 ft 0 kts 216°